Flag for Saint Kitts and Nevis Weather past 2 weeks in Charlestown, Saint Kitts and Nevis

Now
77 °F

Passing clouds.


Feels Like: 78 °F
Forecast: 78 / 84 °F
Wind: No wind

Location: Golden Rock

Current Time: May 28, 2015 at 6:33:34 AM

Latest Report: May 28, 2015 at 6:00 AM


Visibility: N/A

Pressure: 29.95 "Hg

Humidity: 83%

Dew point: 72 °F

Location of CharlestownLocation

Historic Weather in Charlestown — Graph

°F

Charlestown temperature yesterday

Maximum temperature yesterday: 88 °F (at 12:00 PM)
Minimum temperature yesterday: 73 °F (at 6:00 AM)
Average temperature yesterday: 81 °F

Past Weeks' High & Low Weather Summary

 TemperatureHumidityPressure
High88 °F (May 13, 1:00 PM)94% (May 19, 6:00 AM)30.12 "Hg (May 19, 6:00 AM)
Low73 °F (May 27, 6:00 AM)55% (May 18, 11:00 AM)29.92 "Hg (May 27, 4:00 PM)
Average83 °F71%30.04 "Hg
* Reported May 13 6:00 AM — May 27 11:00 PM, Charlestown, Weather by CustomWeather, © 2015

Note: Actual official high and low records may vary slightly from our data, if they occured in-between our weather recording intervals... More about our weather records

Advertising

Charlestown weather history for previous 24 hours

 ConditionsComfort  
Time TempWeatherWind HumidityBarometerVisibility
11:00 PM
Wed, May 27
79 °FScattered showers. Passing clouds.6 mph74%29.98 "HgN/A
10:00 PM79 °FPassing clouds.7 mph74%29.98 "HgN/A
9:00 PM79 °FPassing clouds.2 mph74%29.98 "HgN/A
8:00 PM79 °FPassing clouds.2 mph74%29.95 "HgN/A
7:00 PM81 °FPassing clouds.2 mph66%29.95 "HgN/A
6:00 PM81 °FPassing clouds.6 mph70%29.95 "HgN/A
5:00 PM82 °FPassing clouds.7 mph66%29.92 "HgN/A
4:00 PM84 °FPassing clouds.8 mph62%29.92 "HgN/A
3:00 PM81 °FTornado. Scattered clouds.7 mph74%29.95 "HgN/A
2:00 PM82 °FPassing clouds.6 mph66%29.95 "HgN/A
1:00 PM82 °FPassing clouds.6 mph70%29.95 "HgN/A
12:00 PM88 °FPassing clouds.12 mph59%29.98 "HgN/A
11:00 AM86 °FPassing clouds.7 mph62%29.98 "HgN/A
10:00 AM84 °FPassing clouds.9 mph62%29.98 "HgN/A
9:00 AM84 °FPassing clouds.9 mph62%29.98 "HgN/A
8:00 AM81 °FPassing clouds.No wind70%29.98 "HgN/A
7:00 AM77 °FPassing clouds.No wind79%29.98 "HgN/A
6:00 AM73 °FPassing clouds.No wind89%29.95 "HgN/A
Weather by CustomWeather, © 2015

See weather overviewHow to use our weather pages